TimePDT,TemperatureF,Dew PointF,Humidity,Sea Level PressureIn,VisibilityMPH,Wind Direction,Wind SpeedMPH,Gust SpeedMPH,PrecipitationIn,Events,Conditions,WindDirDegrees,DateUTC
12:15 AM,55.4,37.4,51,29.75,10.0,WSW,9.2,-,N/A,,Unknown,240,2013-09-26 07:15:00
12:35 AM,55.4,37.4,51,29.75,10.0,WSW,10.4,-,N/A,,Unknown,240,2013-09-26 07:35:00
12:55 AM,53.6,37.4,54,29.75,10.0,SW,6.9,-,N/A,,Clear,230,2013-09-26 07:55:00
1:15 AM,53.6,37.4,54,29.75,10.0,WSW,8.1,-,N/A,,Clear,240,2013-09-26 08:15:00
1:35 AM,53.6,37.4,54,29.75,10.0,SW,9.2,-,N/A,,Clear,230,2013-09-26 08:35:00
1:55 AM,53.6,37.4,54,29.76,10.0,WSW,9.2,-,N/A,,Scattered Clouds,240,2013-09-26 08:55:00
2:15 AM,53.6,35.6,51,29.75,10.0,WSW,9.2,-,N/A,,Mostly Cloudy,250,2013-09-26 09:15:00
2:35 AM,53.6,35.6,51,29.75,10.0,WSW,10.4,-,N/A,,Overcast,250,2013-09-26 09:35:00
2:55 AM,53.6,33.8,47,29.75,10.0,West,10.4,16.1,N/A,,Overcast,260,2013-09-26 09:55:00
3:15 AM,53.6,35.6,51,29.75,10.0,West,15.0,20.7,N/A,,Overcast,260,2013-09-26 10:15:00
3:35 AM,53.6,35.6,51,29.75,10.0,WSW,13.8,-,N/A,,Overcast,250,2013-09-26 10:35:00
3:55 AM,53.6,35.6,51,29.75,10.0,West,12.7,-,N/A,,Overcast,270,2013-09-26 10:55:00
4:15 AM,53.6,35.6,51,29.75,10.0,West,15.0,21.9,N/A,,Overcast,270,2013-09-26 11:15:00
4:35 AM,51.8,35.6,54,29.75,10.0,West,17.3,20.7,N/A,,Overcast,270,2013-09-26 11:35:00
4:55 AM,51.8,35.6,54,29.76,10.0,West,10.4,-,N/A,,Unknown,270,2013-09-26 11:55:00
5:15 AM,50.0,35.6,58,29.76,10.0,West,12.7,16.1,N/A,,Unknown,260,2013-09-26 12:15:00
5:35 AM,50.0,37.4,62,29.76,10.0,West,11.5,-,N/A,,Unknown,260,2013-09-26 12:35:00
5:55 AM,48.2,37.4,66,29.76,10.0,West,11.5,-,N/A,,Clear,260,2013-09-26 12:55:00
6:15 AM,48.2,37.4,66,29.77,10.0,West,10.4,-,N/A,,Unknown,270,2013-09-26 13:15:00
6:35 AM,48.2,37.4,66,29.77,10.0,WSW,12.7,-,N/A,,Unknown,250,2013-09-26 13:35:00
6:55 AM,48.2,37.4,66,29.77,10.0,West,15.0,18.4,N/A,,Unknown,260,2013-09-26 13:55:00
7:15 AM,48.2,35.6,62,29.78,10.0,West,11.5,-,N/A,,Unknown,260,2013-09-26 14:15:00
7:35 AM,50.0,35.6,58,29.79,10.0,West,12.7,-,N/A,,Unknown,270,2013-09-26 14:35:00
7:55 AM,51.8,35.6,54,29.79,10.0,West,16.1,21.9,N/A,,Unknown,270,2013-09-26 14:55:00
8:15 AM,53.6,35.6,51,29.80,10.0,West,20.7,24.2,N/A,,Unknown,270,2013-09-26 15:15:00
8:35 AM,53.6,35.6,51,29.81,10.0,West,15.0,-,N/A,,Unknown,260,2013-09-26 15:35:00
8:55 AM,55.4,33.8,44,29.81,10.0,West,17.3,24.2,N/A,,Unknown,260,2013-09-26 15:55:00
9:15 AM,55.4,33.8,44,29.81,10.0,West,21.9,26.5,N/A,,Unknown,270,2013-09-26 16:15:00
9:35 AM,57.2,33.8,41,29.83,10.0,West,19.6,28.8,N/A,,Unknown,270,2013-09-26 16:35:00
9:55 AM,57.2,33.8,41,29.84,10.0,West,17.3,26.5,N/A,,Unknown,270,2013-09-26 16:55:00
10:15 AM,57.2,30.2,36,29.84,10.0,WNW,16.1,27.6,N/A,,Unknown,290,2013-09-26 17:15:00
10:35 AM,59.0,30.2,34,29.83,10.0,West,17.3,25.3,N/A,,Unknown,280,2013-09-26 17:35:00
10:55 AM,59.0,30.2,34,29.84,-9999.0,West,16.1,24.2,N/A,,Unknown,270,2013-09-26 17:55:00
11:15 AM,60.8,-9999,N/A,29.83,-9999.0,West,17.3,25.3,N/A,,Unknown,280,2013-09-26 18:15:00
11:35 AM,60.8,28.4,29,29.83,-9999.0,West,16.1,23.0,N/A,,Clear,270,2013-09-26 18:35:00
11:55 AM,62.6,28.4,27,29.83,-9999.0,West,15.0,26.5,N/A,,Clear,270,2013-09-26 18:55:00
12:15 PM,62.6,28.4,27,29.84,-9999.0,WNW,13.8,25.3,N/A,,Unknown,290,2013-09-26 19:15:00
12:35 PM,64.4,26.6,24,29.83,-9999.0,West,15.0,23.0,N/A,,Unknown,260,2013-09-26 19:35:00
12:55 PM,64.4,28.4,26,29.83,-9999.0,West,12.7,24.2,N/A,,Unknown,260,2013-09-26 19:55:00
1:15 PM,64.4,24.8,22,29.83,-9999.0,West,17.3,23.0,N/A,,Unknown,270,2013-09-26 20:15:00
1:35 PM,66.2,21.2,18,29.82,-9999.0,West,18.4,21.9,N/A,,Unknown,260,2013-09-26 20:35:00
1:55 PM,66.2,19.4,17,29.83,-9999.0,WNW,12.7,27.6,N/A,,Unknown,300,2013-09-26 20:55:00
2:15 PM,66.2,19.4,17,29.82,-9999.0,West,19.6,24.2,N/A,,Unknown,270,2013-09-26 21:15:00
2:35 PM,66.2,17.6,15,29.83,10.0,West,15.0,23.0,N/A,,Unknown,280,2013-09-26 21:35:00
2:55 PM,66.2,17.6,15,29.82,10.0,West,12.7,25.3,N/A,,Unknown,280,2013-09-26 21:55:00
3:15 PM,66.2,17.6,15,29.82,10.0,West,9.2,-,N/A,,Unknown,280,2013-09-26 22:15:00
3:35 PM,68.0,19.4,16,29.82,10.0,WNW,9.2,21.9,N/A,,Unknown,290,2013-09-26 22:35:00
3:55 PM,68.0,17.6,15,29.82,10.0,West,16.1,19.6,N/A,,Unknown,260,2013-09-26 22:55:00
4:15 PM,68.0,19.4,16,29.82,10.0,NW,10.4,21.9,N/A,,Unknown,310,2013-09-26 23:15:00
4:35 PM,68.0,17.6,15,29.83,10.0,WNW,11.5,16.1,N/A,,Unknown,300,2013-09-26 23:35:00
4:55 PM,66.2,17.6,15,29.83,10.0,West,8.1,11.5,N/A,,Unknown,260,2013-09-26 23:55:00
5:15 PM,66.2,17.6,15,29.83,10.0,NW,10.4,-,N/A,,Unknown,320,2013-09-27 00:15:00
5:35 PM,66.2,19.4,17,29.83,10.0,West,16.1,21.9,N/A,,Unknown,270,2013-09-27 00:35:00
5:55 PM,64.4,24.8,22,29.84,10.0,West,18.4,26.5,N/A,,Unknown,270,2013-09-27 00:55:00
6:15 PM,62.6,26.6,26,29.85,10.0,West,18.4,26.5,N/A,,Unknown,270,2013-09-27 01:15:00
6:35 PM,60.8,26.6,27,29.85,10.0,West,16.1,25.3,N/A,,Unknown,270,2013-09-27 01:35:00
6:55 PM,60.8,28.4,29,29.86,10.0,West,17.3,23.0,N/A,,Unknown,270,2013-09-27 01:55:00
7:15 PM,59.0,28.4,31,29.87,10.0,West,16.1,-,N/A,,Unknown,260,2013-09-27 02:15:00
7:35 PM,57.2,28.4,33,29.88,10.0,West,17.3,-,N/A,,Unknown,260,2013-09-27 02:35:00
7:55 PM,57.2,28.4,33,29.88,10.0,West,16.1,23.0,N/A,,Unknown,260,2013-09-27 02:55:00
8:15 PM,57.2,28.4,33,29.89,10.0,West,18.4,25.3,N/A,,Unknown,260,2013-09-27 03:15:00
8:35 PM,55.4,28.4,36,29.89,10.0,West,20.7,26.5,N/A,,Unknown,270,2013-09-27 03:35:00
8:55 PM,55.4,28.4,36,29.90,10.0,West,9.2,-,N/A,,Unknown,260,2013-09-27 03:55:00
9:15 PM,55.4,28.4,36,29.91,10.0,West,12.7,-,N/A,,Unknown,260,2013-09-27 04:15:00
9:35 PM,55.4,30.2,38,29.92,10.0,West,13.8,-,N/A,,Unknown,260,2013-09-27 04:35:00
9:55 PM,53.6,30.2,41,29.92,10.0,WSW,11.5,-,N/A,,Unknown,250,2013-09-27 04:55:00
10:15 PM,53.6,28.4,38,29.93,10.0,WSW,13.8,18.4,N/A,,Unknown,250,2013-09-27 05:15:00
10:35 PM,53.6,28.4,38,29.94,10.0,West,11.5,-,N/A,,Unknown,260,2013-09-27 05:35:00
10:55 PM,53.6,28.4,38,29.94,10.0,West,9.2,-,N/A,,Unknown,260,2013-09-27 05:55:00
11:15 PM,53.6,28.4,38,29.95,10.0,WSW,8.1,-,N/A,,Unknown,250,2013-09-27 06:15:00
11:35 PM,53.6,28.4,38,29.95,10.0,WSW,9.2,-,N/A,,Unknown,250,2013-09-27 06:35:00
11:55 PM,51.8,26.6,38,29.95,10.0,West,6.9,-,N/A,,Unknown,260,2013-09-27 06:55:00